Everett, WA

10:31 PM PST on December 05, 2019 (GMT -0800)
Snohomish County

Weather History for KPAE - July, 2019

Change the Weather History Date:

Sunday, July 14, 2019

  Actual Average Record
Temperature  
Mean Temperature 67 °F -  
Max Temperature 75 °F 71 °F 92 °F (1961)
Min Temperature 59 °F 53 °F 44 °F (1967)
Cooling Degree Days 2    
Growing Degree Days 17 (Base 50)    
Moisture  
Dew Point 54 °F    
Average Humidity 70    
Maximum Humidity 90    
Minimum Humidity 46    
Precipitation  
Precipitation 0.00 in - - ()
Sea Level Pressure  
Sea Level Pressure 30.09 in    
Wind  
Wind Speed 5 mph (North)    
Max Wind Speed 9 mph    
Max Gust Speed -    
Visibility 10 miles    
Events      
Averages and records for this station are not official NWS values.
T = Trace of Precipitation, MM = Missing Value Source: NWS Daily Summary

Daily Weather History Graph

Daily Weather History Graph

Search for Another Location

Airport or City:

Astronomy

Jul. 14, 2019 Rise Set
Actual Time 5:24 AM PDT 9:04 PM PDT
Civil Twilight 4:45 AM PDT 9:44 PM PDT
Nautical Twilight 3:52 AM PDT 10:36 PM PDT
Astronomical Twilight 2:37 AM PDT 11:50 PM PDT
Moon 7:33 PM PDT (7/14) 3:30 AM PDT (7/14)
Length of Visible Light 16h 58m
Length of Day
15h 40m
Waxing Gibbous, 96% of the Moon is Illuminated
Jul 14
Waxing Gibbous
Jul 16
Full
Jul 24
Last Quarter
Jul 31
New
Aug 7
First Quarter

Hourly Weather History & Observations

Time (PDT) Temp. Dew Point Humidity Pressure Visibility Wind Dir Wind Speed Gust Speed Precip Events Conditions
12:53 AM 59.0 °F 55.0 °F 87% 30.04 in 10.0 mi North 8.1 mph - N/A   Scattered Clouds
1:53 AM 59.0 °F 55.0 °F 87% 30.05 in 10.0 mi North 5.8 mph - N/A   Overcast
2:53 AM 59.0 °F 55.9 °F 90% 30.05 in 10.0 mi North 5.8 mph - N/A   Mostly Cloudy
3:53 AM 60.1 °F 55.9 °F 86% 30.05 in 10.0 mi North 3.5 mph - N/A   Overcast
4:53 AM 60.1 °F 55.0 °F 83% 30.06 in 10.0 mi North 4.6 mph - N/A   Mostly Cloudy
5:53 AM 60.1 °F 55.0 °F 83% 30.08 in 10.0 mi Calm Calm - N/A   Overcast
6:53 AM 60.1 °F 55.0 °F 83% 30.09 in 10.0 mi Calm Calm - N/A   Overcast
7:53 AM 61.0 °F 55.0 °F 81% 30.11 in 10.0 mi ENE 4.6 mph - N/A   Overcast
8:32 AM 63.0 °F 55.0 °F 75% 30.12 in 10.0 mi East 3.5 mph - N/A   Overcast
8:42 AM 62.1 °F 55.0 °F 78% 30.12 in 10.0 mi Variable 3.5 mph - N/A   Overcast
8:53 AM 63.0 °F 55.0 °F 75% 30.12 in 10.0 mi ESE 3.5 mph - N/A   Overcast
9:53 AM 64.0 °F 55.0 °F 73% 30.12 in 10.0 mi SSE 4.6 mph - N/A   Mostly Cloudy
10:53 AM 64.9 °F 55.9 °F 73% 30.13 in 10.0 mi Calm Calm - N/A   Overcast
11:41 AM 68.0 °F 55.0 °F 63% 30.13 in 10.0 mi ESE 3.5 mph - N/A   Scattered Clouds
11:53 AM 68.0 °F 55.0 °F 63% 30.12 in 10.0 mi South 3.5 mph - N/A   Partly Cloudy
12:07 PM 69.1 °F 55.0 °F 61% 30.13 in 10.0 mi Variable 3.5 mph - N/A   Mostly Cloudy
12:38 PM 66.9 °F 55.0 °F 66% 30.13 in 10.0 mi NW 5.8 mph - N/A   Mostly Cloudy
12:53 PM 69.1 °F 55.9 °F 63% 30.12 in 10.0 mi West 6.9 mph - N/A   Scattered Clouds
1:53 PM 72.0 °F 53.1 °F 51% 30.11 in 10.0 mi North 6.9 mph - N/A   Partly Cloudy
2:53 PM 73.0 °F 54.0 °F 51% 30.11 in 10.0 mi West 9.2 mph - N/A   Clear
3:53 PM 73.9 °F 54.0 °F 50% 30.09 in 10.0 mi North 6.9 mph - N/A   Clear
4:53 PM 75.0 °F 53.1 °F 46% 30.09 in 10.0 mi Variable 6.9 mph - N/A   Clear
5:53 PM 73.9 °F 52.0 °F 46% 30.08 in 10.0 mi WNW 6.9 mph - N/A   Clear
6:53 PM 71.1 °F 53.1 °F 53% 30.07 in 10.0 mi NNW 5.8 mph - N/A   Clear
7:53 PM 66.9 °F 54.0 °F 63% 30.06 in 10.0 mi North 5.8 mph - N/A   Clear
8:53 PM 64.9 °F 54.0 °F 68% 30.06 in 10.0 mi North 5.8 mph - N/A   Clear
9:53 PM 62.1 °F 53.1 °F 72% 30.08 in 10.0 mi NNW 6.9 mph - N/A   Clear
10:53 PM 60.1 °F 53.1 °F 78% 30.08 in 10.0 mi North 8.1 mph - N/A   Clear
11:53 PM 60.1 °F 53.1 °F 78% 30.07 in 10.0 mi North 8.1 mph - N/A   Clear